Location: Davayat
(45.9471°N, 3.1105°E)
Time: 16:42:47
(UTC+00:00)

NOSS 3-2 (C) - Pass Details

Date: 01 December 2020
Orbit: 789 x 1424 km, 63.4° (Epoch: 09 January)

Event Time Altitude Azimuth Distance (km) Brightness Sun altitude
Rises 18:07:33 0° 191° (S) 3,312 6.6 -20.8°
Reaches altitude 10° 18:10:00 10° 184° (S) 2,426 5.7 -21.2°
Maximum altitude 18:15:08 40° 116° (ESE) 1,299 3.7 -22.1°
Enters shadow 18:15:13 39° 114° (ESE) 1,301 3.7 -22.1°
